FW8692 Weather Reports


Display with metric or nautical units.
time (UTC)temp
F
wind
direction
speed
MPH
gust
MPH
rain 1hr
in
rain 24hr
in
rain mn
in
humidity
%
barometer
mb
20260504025101 54 194 3.0 6.0 0.00 0.00 0.00 59 1013.0
20260504022057 54 183 6.0 6.0 0.00 0.00 0.00 60 1012.9
20260504015055 54 182 4.0 5.0 0.00 0.00 0.00 60 1013.0
20260504012050 55 188 5.0 6.0 0.00 0.00 0.00 55 1013.1
20260504005046 56 193 3.0 5.0 0.00 0.00 0.00 50 1013.0
20260504002046 57 210 3.0 5.0 0.00 0.00 0.00 47 1012.9
20260503235041 58 233 7.0 10.0 0.00 0.00 0.00 45 1012.8
20260503232041 58 172 4.0 6.0 0.00 0.00 0.00 45 1012.7
20260503225038 58 188 10.0 16.0 0.00 0.00 0.00 43 1013.0
20260503222035 59 180 11.0 13.0 0.00 0.00 0.00 45 1013.3
20260503215034 59 199 3.0 8.0 0.00 0.00 0.00 41 1014.0
20260503212030 59 216 6.0 10.0 0.00 0.00 0.00 39 1014.3
20260503205026 56 143 0.0 1.0 0.00 0.00 0.00 53 1014.7
20260503202021 53 145 0.0 0.0 0.00 0.00 0.00 55 1015.7
20260503195020 53 309 3.0 5.0 0.00 0.00 0.00 52 1016.9
20260503192019 56 253 3.0 6.0 0.00 0.00 0.00 42 1016.6
20260503185015 58 261 5.0 8.0 0.00 0.00 0.00 38 1016.8
20260503182015 59 201 2.0 3.0 0.00 0.00 0.00 34 1017.2
20260503175014 60 181 10.0 14.0 0.00 0.00 0.00 35 1017.6
20260503172012 59 216 2.0 6.0 0.00 0.00 0.00 39 1017.9
20260503071921 36 253 1.0 2.0 0.00 0.00 0.00 78 1018.7
20260503054911 37 311 1.0 1.0 0.00 0.00 0.00 81 1019.1
20260503051910 36 311 1.0 1.0 0.00 0.00 0.00 87 1019.3
20260503044908 37 311 0.0 0.0 0.00 0.00 0.00 80 1019.4
20260503041905 36 311 1.0 1.0 0.00 0.00 0.00 85 1019.4
20260503034905 36 311 0.0 0.0 0.00 0.00 0.00 86 1019.3
20260503031902 37 311 0.0 0.0 0.00 0.00 0.00 85 1019.1